Flag for Switzerland Weather past 2 weeks in Sion, Valais, Switzerland

Now
80 °F

Warm.


Feels Like: 80 °F
Forecast: 68 / 87 °F
Wind: 3 mph from Northwest

Location: Sion

Current Time: Aug 3, 2015 at 9:56:49 PM

Latest Report: Aug 3, 2015 at 9:00 PM


Visibility: N/A

Pressure: 29.91 "Hg (28.21 "Hg at 514m altitude)

Humidity: 41%

Dew point: 54 °F

Location of SionLocation

Historic Weather in Sion — Graph

°F

Sion temperature yesterday

Maximum temperature yesterday: 82 °F (at 4:00 PM)
Minimum temperature yesterday: 61 °F (at 4:00 AM)
Average temperature yesterday: 70 °F

Past Weeks' High & Low Weather Summary

 TemperatureHumidityPressure
High96 °F (Jul 21, 5:00 PM)97% (Jul 25, 4:00 AM)30.11 "Hg (Jul 25, 4:00 AM)
Low53 °F (Jul 31, 6:00 AM)26% (Jul 27, 4:00 PM)29.61 "Hg (Jul 24, 5:00 PM)
Average71 °F62%29.90 "Hg
* Reported Jul 19 8:00 PM — Aug 3 8:00 PM, Sion, Weather by CustomWeather, © 2015

Note: Actual official high and low records may vary slightly from our data, if they occured in-between our weather recording intervals... More about our weather records

Advertising

Sion weather history for previous 24 hours

 ConditionsComfort  
Time TempWeatherWind HumidityBarometerVisibility
8:00 PM
Mon, Aug 3
83 °FPleasantly warm.6 mph38%29.89 "HgN/A
7:00 PM87 °FPleasantly warm.13 mph37%29.87 "HgN/A
6:00 PM89 °FHot.16 mph33%29.86 "HgN/A
5:00 PM89 °FHot.14 mph33%29.88 "HgN/A
4:00 PM88 °FHot.14 mph34%29.90 "HgN/A
3:00 PM88 °FPleasantly warm.8 mph37%29.92 "HgN/A
2:00 PM83 °FPassing clouds.8 mph42%29.96 "Hg22 mi
1:00 PM81 °FWarm.5 mph46%29.98 "HgN/A
12:00 PM78 °FWarm.3 mph49%30.01 "HgN/A
11:00 AM75 °FPassing clouds.2 mph54%30.05 "Hg22 mi
10:00 AM71 °FMild.3 mph65%30.07 "HgN/A
9:00 AM68 °FMild.5 mph72%30.09 "HgN/A
8:00 AM65 °FPassing clouds.3 mph80%30.10 "Hg19 mi
7:00 AM61 °FCool.1 mph90%30.11 "HgN/A
5:00 AM62 °FCool.1 mph92%30.09 "HgN/A
4:00 AM63 °FMild.No wind88%30.09 "HgN/A
3:00 AM66 °FMild.1 mph80%30.07 "HgN/A
2:00 AM66 °FClear.3 mph78%30.07 "Hg16 mi
1:00 AM65 °FMild.1 mph89%30.07 "HgN/A
12:00 AM68 °FMild.3 mph76%30.05 "HgN/A
11:00 PM
Sun, Aug 2
67 °FMild.1 mph84%30.04 "HgN/A
10:00 PM69 °FMild.No wind78%30.01 "HgN/A
9:00 PM72 °FMild.3 mph67%29.97 "HgN/A
Weather by CustomWeather, © 2015

See weather overviewHow to use our weather pages